Vorticity
4 5 9 11 11 8 2 2 6 4 3 5 3 5 5 6 7 10 5 2 5 5 9 8 5 8 8 5 9 8 1 4 5 5 7 6 11 7 7 7 6 3 6
2 2 3 3 5 10 11 10 2 4 6 3 3 2 4 5 4 8 11 8 6 5 3 9 6 4 6 13 3 42 3 7 1 5 4 -1 4 4 6 7 6 7 6
2 1 2 5 5 5 6 11 11 7 3 7 3 0 5 3 4 4 8 8 10 4 5 4 7 7 8 9 5 -9 1 25 8 2 13 3 4 5 8 6 5 6 6
4 4 4 5 7 7 7 7 10 10 9 4 2 2 3 5 5 4 2 4 6 7 4 8 5 7 6 8 11 6 -0 1 1 0 16 9 5 6 10 4 5 6 4
7 7 7 6 4 3 4 10 8 11 9 12 3 3 2 8 7 5 2 4 6 7 7 6 7 10 10 10 5 6 15 11 11 10 5 5 7 11 4 4 6 6 6
12 14 16 15 14 14 10 6 5 9 13 9 9 7 1 6 6 5 4 4 5 7 6 6 7 7 9 13 7 -5 10 -2 6 5 8 9 7 4 6 6 3 2 7
5 9 20 32 40 14 11 14 11 8 11 11 9 10 8 8 5 6 5 4 6 6 4 4 4 4 7 8 9 7 8 10 10 9 10 4 7 7 6 4 5 8 8
19 7 -2 -2 4 5 55 6 14 11 11 11 10 10 7 8 8 5 6 4 4 5 6 3 4 7 6 8 10 10 9 9 6 7 7 6 6 5 4 8 9 5 7
2 -2 9 16 11 7 -1 38 15 11 14 12 11 9 8 8 9 6 7 6 5 7 6 4 6 8 7 8 7 7 6 9 9 7 5 5 5 6 9 7 7 8 7
25 19 11 8 10 18 20 9 20 23 10 14 13 8 10 7 7 8 6 5 9 5 7 5 7 6 7 6 7 8 9 7 6 5 5 5 6 7 6 7 7 8 8
8 8 14 12 6 10 25 10 14 26 13 10 18 8 6 8 8 8 6 5 8 6 6 5 8 8 8 9 5 10 7 7 5 5 5 6 6 6 7 8 5 9 8
-2 5 6 25 20 22 22 21 16 22 24 14 15 11 6 7 6 8 8 6 8 6 5 6 6 3 8 5 8 8 6 5 5 6 6 6 8 8 6 7 8 8 11
10 14 38 24 32 35 25 15 15 14 34 16 16 13 8 5 8 7 8 8 6 6 5 6 7 6 6 5 8 8 6 5 6 6 6 9 7 5 9 9 9 13 6
30 28 19 38 57 45 35 15 7 6 29 24 14 13 10 7 7 9 8 6 7 5 8 7 6 8 4 7 8 6 6 6 6 8 8 5 8 8 8 12 12 5 4
24 23 41 5 62 34 44 38 3 1 28 19 13 11 8 8 8 9 6 8 6 8 6 5 8 4 8 8 6 6 6 6 10 7 7 9 9 9 12 9 6 5 -1
16 19 23 46 -6 33 31 31 8 19 20 16 12 8 9 8 9 5 7 5 8 8 6 6 4 8 8 6 6 6 8 9 4 8 9 8 8 13 7 7 3 -1 -2
16 27 20 27 35 22 18 13 23 21 17 13 7 11 7 8 6 7 6 8 7 7 5 4 9 12 3 6 6 9 7 6 9 6 7 10 13 6 4 0 3 3 1
37 24 23 16 15 15 8 22 18 16 14 10 10 11 7 5 8 4 2 9 6 4 7 14 5 5 5 8 8 8 7 7 7 7 13 11 5 3 -1 -2 1 -2 4
-2 42 22 17 21 24 22 16 17 14 9 12 8 9 22 -4 4 10 8 4 6 12 11 5 4 8 7 8 8 8 5 7 9 16 7 5 4 2 -3 -1 -2 2 14
7 2 19 18 18 19 16 13 11 9 -7 12 -6 1 2 6 12 3 7 11 13 6 5 8 6 6 8 6 6 7 9 11 13 6 7 2 7 -0 -2 -1 6 16 47
0 11 10 12 13 1 10 7 5 1 18 6 -7 8 -3 5 7 14 11 7 6 8 5 5 7 9 7 8 9 10 14 10 7 4 3 5 1 -1 3 0 16 51 67
9 29 3 10 6 -3 -6 16 20 15 15 17 11 6 10 14 12 7 7 7 4 3 6 8 8 7 7 9 10 14 9 7 3 4 6 4 -1 1 3 16 56 63 12
11 48 -4 -5 4 -2 -20 13 5 9 12 14 15 13 8 6 7 7 4 3 3 4 6 7 7 8 9 13 11 9 5 4 4 4 6 2 1 -0 22 62 64 12 8
7 14 7 11 26 26 21 19 16 16 12 7 7 7 7 5 4 3 5 5 6 8 8 6 7 10 14 10 7 4 4 5 3 6 2 2 -3 26 59 62 13 8 4
5 6 15 15 13 12 11 8 8 8 9 8 6 5 4 5 4 4 7 9 9 8 6 8 12 13 9 6 4 2 6 4 5 0 4 1 30 59 59 13 7 6 7
1 8 15 7 8 10 9 8 8 6 5 4 6 5 3 4 6 9 9 8 8 8 10 13 11 7 5 4 3 5 5 2 2 4 4 32 62 59 16 6 5 4 6
Height
5738 5740 5742 5745 5747 5750 5751 5754 5754 5758 5759 5760 5762 5765 5763 5764 5768 5770 5771 5773 5772 5773 5771 5771 5770 5769 5770 5769 5768 5767 5766 5764 5764 5763 5762 5762 5759 5757 5756 5753 5750 5748 5745
5730 5733 5735 5737 5739 5741 5743 5745 5746 5749 5751 5752 5755 5754 5755 5759 5761 5762 5763 5764 5766 5765 5764 5764 5763 5763 5762 5761 5759 5756 5756 5755 5754 5754 5753 5753 5752 5748 5745 5743 5739 5736 5734
5723 5724 5725 5727 5728 5730 5731 5734 5737 5736 5742 5743 5742 5745 5749 5752 5753 5754 5755 5756 5758 5758 5756 5756 5754 5754 5755 5754 5752 5750 5749 5747 5745 5745 5743 5742 5741 5739 5736 5732 5729 5725 5721
5713 5714 5714 5715 5716 5718 5719 5721 5724 5726 5727 5734 5732 5736 5739 5744 5745 5745 5747 5748 5749 5750 5749 5749 5748 5746 5746 5746 5744 5742 5740 5738 5736 5734 5732 5731 5729 5727 5725 5721 5718 5714 5709
5701 5701 5701 5703 5704 5704 5707 5710 5713 5715 5715 5719 5724 5727 5731 5735 5738 5737 5739 5740 5741 5742 5742 5741 5741 5740 5737 5736 5735 5734 5733 5731 5728 5725 5723 5721 5718 5716 5713 5711 5705 5700 5694
5687 5687 5688 5688 5689 5690 5691 5695 5698 5703 5704 5706 5712 5717 5723 5725 5727 5729 5731 5732 5733 5734 5734 5734 5733 5732 5730 5728 5727 5724 5723 5722 5718 5715 5713 5710 5708 5705 5701 5699 5694 5690 5684
5670 5671 5674 5675 5676 5675 5677 5680 5683 5688 5691 5695 5699 5706 5712 5713 5717 5720 5722 5723 5725 5726 5726 5726 5726 5723 5722 5721 5718 5716 5714 5711 5708 5706 5703 5700 5697 5693 5688 5684 5680 5676 5672
5655 5656 5657 5657 5659 5661 5661 5662 5666 5671 5677 5683 5687 5695 5700 5703 5707 5710 5712 5714 5717 5718 5718 5719 5717 5716 5714 5712 5709 5707 5705 5702 5699 5696 5693 5689 5685 5680 5675 5670 5664 5661 5655
5644 5643 5643 5642 5642 5643 5647 5648 5649 5654 5660 5667 5675 5684 5691 5695 5698 5700 5703 5706 5708 5710 5711 5710 5709 5708 5706 5704 5701 5699 5696 5693 5689 5686 5682 5678 5673 5667 5662 5655 5648 5641 5636
5631 5629 5627 5625 5625 5626 5627 5634 5635 5638 5644 5650 5664 5673 5681 5686 5687 5690 5695 5698 5700 5701 5702 5702 5701 5700 5698 5696 5693 5690 5687 5684 5680 5676 5671 5666 5661 5655 5648 5641 5633 5625 5618
5617 5615 5610 5607 5606 5606 5610 5615 5621 5624 5628 5640 5654 5662 5668 5674 5680 5684 5687 5690 5692 5693 5693 5694 5692 5691 5690 5687 5684 5681 5678 5674 5669 5664 5659 5653 5648 5642 5634 5626 5619 5611 5602
5600 5593 5586 5582 5582 5585 5588 5597 5604 5610 5619 5631 5643 5649 5657 5665 5670 5676 5679 5681 5684 5685 5685 5685 5685 5683 5681 5677 5675 5672 5667 5663 5658 5652 5647 5641 5634 5627 5619 5612 5604 5595 5585
5585 5575 5568 5562 5558 5560 5565 5578 5591 5602 5611 5623 5631 5640 5649 5656 5662 5667 5671 5674 5676 5677 5677 5677 5677 5674 5671 5668 5665 5661 5656 5651 5646 5641 5635 5628 5621 5613 5605 5597 5588 5579 5569
5573 5563 5553 5545 5538 5540 5550 5562 5580 5596 5603 5614 5624 5633 5641 5649 5655 5660 5664 5667 5670 5670 5670 5670 5669 5665 5662 5658 5655 5651 5646 5640 5634 5628 5621 5614 5606 5599 5591 5583 5573 5563 5553
5565 5557 5547 5538 5532 5536 5544 5559 5576 5589 5598 5607 5618 5628 5636 5643 5650 5654 5658 5661 5663 5663 5663 5662 5659 5656 5653 5649 5645 5640 5635 5629 5623 5615 5608 5600 5592 5584 5575 5565 5556 5546 5535
5561 5555 5548 5543 5539 5543 5549 5561 5575 5585 5595 5606 5616 5625 5633 5639 5645 5649 5653 5655 5655 5655 5655 5652 5650 5647 5643 5639 5634 5629 5623 5617 5610 5602 5594 5586 5577 5568 5559 5550 5539 5526 5512
5561 5555 5550 5547 5546 5548 5555 5566 5576 5584 5595 5605 5614 5623 5632 5636 5641 5645 5647 5648 5648 5647 5646 5643 5641 5638 5633 5629 5624 5618 5612 5605 5597 5588 5580 5571 5563 5554 5546 5536 5524 5510 5492
5564 5560 5555 5553 5555 5558 5564 5570 5578 5587 5597 5606 5615 5623 5628 5633 5637 5641 5642 5641 5640 5639 5637 5636 5632 5628 5623 5618 5613 5607 5600 5592 5584 5575 5566 5557 5550 5541 5531 5521 5507 5492 5474
5570 5566 5563 5561 5562 5566 5571 5577 5585 5592 5600 5608 5615 5621 5625 5631 5633 5634 5634 5634 5633 5631 5629 5626 5622 5618 5614 5607 5601 5594 5588 5580 5570 5561 5552 5544 5535 5524 5514 5501 5487 5471 5452
5576 5573 5572 5571 5571 5575 5579 5585 5591 5596 5600 5606 5613 5621 5624 5626 5627 5628 5628 5627 5626 5623 5620 5616 5613 5608 5602 5596 5590 5583 5575 5567 5559 5550 5539 5528 5518 5506 5493 5480 5465 5451 5432
5578 5577 5578 5580 5580 5581 5584 5589 5596 5601 5607 5611 5614 5617 5619 5622 5622 5621 5621 5619 5618 5615 5611 5607 5603 5597 5591 5584 5577 5569 5561 5554 5546 5536 5526 5514 5501 5489 5474 5458 5443 5428 5416
5583 5579 5580 5583 5582 5588 5589 5593 5597 5603 5604 5609 5611 5612 5615 5616 5616 5615 5614 5612 5609 5606 5602 5597 5592 5586 5580 5573 5566 5558 5550 5541 5533 5523 5511 5498 5485 5471 5456 5440 5424 5413 5407
5587 5586 5588 5591 5592 5592 5595 5598 5602 5605 5606 5608 5609 5609 5611 5611 5610 5609 5606 5604 5601 5597 5592 5587 5581 5575 5568 5561 5553 5545 5537 5528 5519 5508 5494 5481 5467 5453 5435 5419 5410 5405 5399
5591 5592 5593 5593 5594 5595 5597 5599 5601 5602 5604 5605 5606 5607 5606 5605 5603 5601 5599 5595 5592 5588 5583 5577 5571 5564 5556 5549 5542 5533 5525 5515 5504 5492 5479 5464 5449 5431 5418 5407 5402 5398 5391
5594 5593 5594 5594 5595 5596 5597 5599 5600 5601 5602 5602 5601 5601 5600 5599 5596 5594 5591 5587 5583 5578 5573 5567 5560 5553 5546 5539 5531 5522 5512 5502 5491 5478 5464 5447 5429 5413 5404 5399 5396 5390 5383
5593 5593 5594 5595 5596 5597 5597 5598 5598 5598 5598 5598 5598 5596 5595 5592 5589 5586 5582 5578 5574 5569 5563 5556 5550 5543 5536 5528 5519 5509 5497 5486 5474 5460 5445 5427 5411 5403 5398 5394 5389 5383 5375